Traverse City, MI

1:19 AM EDT on July 27, 2017 (GMT -0400)
Cherry Capital

Weather History for KTVC - November, 2011

Change the Weather History Date:

Wednesday, November 23, 2011

  Actual Average Record
Temperature  
Mean Temperature 33 °F 34 °F  
Max Temperature 45 °F 41 °F 66 °F (1931)
Min Temperature 21 °F 28 °F 7 °F (1950)
Degree Days  
Heating Degree Days 32 31  
Month to date heating degree days 525 606  
Since 1 July heating degree days 1146 1393  
Moisture  
Dew Point 30 °F    
Average Humidity 81    
Maximum Humidity 96    
Minimum Humidity 65    
Precipitation  
Precipitation 0.00 in 0.09 in 0.58 in (1955)
Month to date precipitation 2.62 2.11  
Year to date precipitation 25.16 29.97  
Sea Level Pressure  
Sea Level Pressure 30.09 in    
Wind  
Wind Speed 4 mph (SW)    
Max Wind Speed 14 mph    
Max Gust Speed 21 mph    
Visibility 9 miles    
Events      
T = Trace of Precipitation, MM = Missing Value Source: NWS Daily Summary

Daily Weather History Graph

Daily Weather History Graph

Search for Another Location

Airport or City:

Trip Planner

Search our weather history database for the weather conditions in past years. The results will help you decide how hot, cold, wet, or windy it might be!

Date:

Astronomy

Nov. 23, 2011 Rise Set
Actual Time 7:49 AM EST 5:07 PM EST
Civil Twilight 7:17 AM EST 5:39 PM EST
Nautical Twilight 6:41 AM EST 6:15 PM EST
Astronomical Twilight 6:06 AM EST 6:50 PM EST
Moon 5:51 AM EST (11/23) 3:49 PM EST (11/23)
Length of Visible Light 10h 22m
Length of Day
9h 18m
Waning Crescent, 4% of the Moon is Illuminated
Nov 23
Waning Crescent
Nov 25
New
Dec 2
First Quarter
Dec 10
Full
Dec 17
Last Quarter

Hourly Weather History & Observations

Time (EST) Temp. Windchill Dew Point Humidity Pressure Visibility Wind Dir Wind Speed Gust Speed Precip Events Conditions
12:53 AM 27.0 °F - 25.0 °F 92% 30.02 in 10.0 mi Calm Calm - N/A   Clear
1:53 AM 27.0 °F - 24.1 °F 89% 30.02 in 9.0 mi Calm Calm - N/A   Clear
2:53 AM 25.0 °F - 21.9 °F 88% 30.03 in 9.0 mi Calm Calm - N/A   Clear
3:53 AM 24.1 °F - 21.9 °F 91% 30.04 in 10.0 mi Calm Calm - N/A   Clear
4:53 AM 24.1 °F - 21.0 °F 88% 30.05 in 10.0 mi Calm Calm - N/A   Clear
5:53 AM 24.8 °F - 21.2 °F 86% 30.04 in 10.0 mi Calm Calm - N/A   Clear
6:53 AM 24.1 °F - 21.0 °F 88% 30.09 in 10.0 mi Calm Calm - N/A   Clear
7:36 AM 24.8 °F - 21.2 °F 86% 30.08 in 7.0 mi Calm Calm - N/A   Mostly Cloudy
7:53 AM 23.0 °F - 21.0 °F 92% 30.11 in 7.0 mi Calm Calm - N/A   Mostly Cloudy
8:30 AM 24.8 °F - 21.2 °F 86% 30.08 in 7.0 mi Calm Calm - N/A   Scattered Clouds
8:53 AM 27.0 °F - 25.0 °F 92% 30.11 in 6.0 mi Calm Calm - N/A   Scattered Clouds
9:53 AM 36.0 °F 33.3 °F 32.0 °F 86% 30.12 in 6.0 mi SW 3.5 mph - N/A   Scattered Clouds
10:04 AM 35.6 °F 32.8 °F 32.0 °F 87% 30.10 in 6.0 mi WSW 3.5 mph - N/A   Mostly Cloudy
10:53 AM 41.0 °F 35.2 °F 34.0 °F 76% 30.14 in 10.0 mi West 9.2 mph - N/A   Mostly Cloudy
11:53 AM 41.0 °F 37.1 °F 33.1 °F 73% 30.14 in 10.0 mi West 5.8 mph - N/A   Overcast
12:53 PM 42.1 °F 37.7 °F 33.1 °F 70% 30.12 in 10.0 mi SSW 6.9 mph - N/A   Mostly Cloudy
1:37 PM 44.6 °F 40.7 °F 33.8 °F 66% 30.09 in 10.0 mi Variable 6.9 mph - N/A   Scattered Clouds
1:53 PM 44.1 °F - 33.1 °F 65% 30.11 in 10.0 mi Calm Calm - N/A   Scattered Clouds
2:53 PM 44.6 °F 40.2 °F 33.8 °F 66% 30.07 in 10.0 mi SSW 8.1 mph - N/A   Scattered Clouds
3:53 PM 43.0 °F 37.2 °F 33.1 °F 68% 30.11 in 10.0 mi SSW 10.4 mph 17.3 mph N/A   Scattered Clouds
4:18 PM 41.0 °F 35.2 °F 33.8 °F 76% 30.10 in 10.0 mi SW 9.2 mph 17.3 mph N/A   Mostly Cloudy
4:53 PM 41.0 °F 36.4 °F 33.1 °F 73% 30.13 in 10.0 mi WSW 6.9 mph - N/A   Overcast
5:53 PM 41.0 °F 37.1 °F 34.0 °F 76% 30.13 in 10.0 mi SW 5.8 mph - N/A   Overcast
6:53 PM 41.0 °F 39.0 °F 34.0 °F 76% 30.12 in 10.0 mi Variable 3.5 mph - N/A   Overcast
7:53 PM 41.0 °F 35.8 °F 35.1 °F 79% 30.13 in 10.0 mi SW 8.1 mph - N/A   Overcast
8:53 PM 41.0 °F 39.0 °F 35.1 °F 79% 30.11 in 8.0 mi Variable 3.5 mph - N/A   Overcast
9:53 PM 41.0 °F 37.1 °F 35.6 °F 81% 30.09 in 6.0 mi Variable 5.8 mph 17.3 mph N/A   Haze
10:53 PM 41.0 °F 37.1 °F 35.1 °F 79% 30.10 in 6.0 mi Variable 5.8 mph - N/A   Haze
11:45 PM 41.0 °F 34.7 °F 35.6 °F 81% 30.08 in 5.0 mi SSW 10.4 mph 16.1 mph N/A   Haze
11:53 PM 41.0 °F 34.7 °F 36.0 °F 82% 30.09 in 5.0 mi SSW 10.4 mph - N/A   Haze